Sitka, AK

4:49 PM AKST on January 19, 2017 (GMT -0900)
Sitka Rocky Gutierrez

Weather History for PASI - April, 2013

Change the Weather History Date:

Tuesday, April 2, 2013

  Actual Average Record
Temperature  
Mean Temperature 38 °F -  
Max Temperature 43 °F 45 °F 60 °F (1958)
Min Temperature 33 °F 35 °F 24 °F (1954)
Degree Days  
Heating Degree Days 28    
Moisture  
Dew Point 35 °F    
Average Humidity 89    
Maximum Humidity 100    
Minimum Humidity 70    
Precipitation  
Precipitation 0.17 in - - ()
Sea Level Pressure  
Sea Level Pressure 30.22 in    
Wind  
Wind Speed 5 mph (ESE)    
Max Wind Speed 13 mph    
Max Gust Speed -    
Visibility 9 miles    
Events Rain , Snow    
Averages and records for this station are not official NWS values.
T = Trace of Precipitation, MM = Missing Value Source: NWS Daily Summary

Daily Weather History Graph

Daily Weather History Graph

Search for Another Location

Airport or City:

Trip Planner

Search our weather history database for the weather conditions in past years. The results will help you decide how hot, cold, wet, or windy it might be!

Date:

Astronomy

Apr. 02, 2013 Rise Set
Actual Time 6:26 AM AKDT 7:44 PM AKDT
Civil Twilight 5:47 AM AKDT 8:23 PM AKDT
Nautical Twilight 4:59 AM AKDT 9:12 PM AKDT
Astronomical Twilight 4:04 AM AKDT 10:07 PM AKDT
Moon 2:45 AM AKDT (4/2) 10:37 AM AKDT (4/2)
Length of Visible Light 14h 36m
Length of Day
13h 17m
Waning Gibbous, 54% of the Moon is Illuminated
Apr 2
Waning Gibbous
Apr 2
Last Quarter
Apr 10
New
Apr 18
First Quarter
Apr 25
Full

Hourly Weather History & Observations

Time (AKDT) Temp. Windchill Dew Point Humidity Pressure Visibility Wind Dir Wind Speed Gust Speed Precip Events Conditions
12:34 AM 35.6 °F 29.9 °F 33.8 °F 93% 30.10 in 8.0 mi West 6.9 mph - 0.00 in Snow Light Snow
12:53 AM 37.0 °F - 34.0 °F 89% 30.11 in 10.0 mi Calm Calm - 0.00 in   Mostly Cloudy
1:24 AM 37.4 °F 34.9 °F 33.8 °F 87% 30.12 in 7.0 mi WSW 3.5 mph - 0.01 in Rain Light Rain
1:53 AM 36.0 °F 32.1 °F 34.0 °F 93% 30.13 in 10.0 mi ESE 4.6 mph - 0.01 in   Overcast
2:41 AM 35.6 °F 30.7 °F 33.8 °F 93% 30.13 in 10.0 mi East 5.8 mph - 0.01 in   Overcast
2:53 AM 35.1 °F 30.1 °F 34.0 °F 96% 30.14 in 10.0 mi East 5.8 mph - 0.01 in   Overcast
3:53 AM 35.1 °F 30.1 °F 34.0 °F 96% 30.14 in 10.0 mi East 5.8 mph - 0.01 in   Mostly Cloudy
4:16 AM 33.8 °F 28.6 °F 33.8 °F 100% 30.15 in 10.0 mi East 5.8 mph - N/A   Scattered Clouds
4:46 AM 35.6 °F 29.9 °F 35.6 °F 100% 30.15 in 7.0 mi North 6.9 mph - 0.01 in Rain Rain
4:53 AM 36.0 °F 32.1 °F 35.1 °F 97% 30.15 in 8.0 mi Variable 4.6 mph - 0.01 in Rain Ice Pellets
5:06 AM 35.6 °F 32.8 °F 33.8 °F 93% 30.15 in 10.0 mi ENE 3.5 mph - 0.00 in   Overcast
5:53 AM 35.1 °F 31.0 °F 34.0 °F 96% 30.16 in 10.0 mi East 4.6 mph - 0.00 in   Overcast
6:40 AM 35.6 °F 31.7 °F 33.8 °F 93% 30.17 in 7.0 mi East 4.6 mph - 0.03 in Rain Rain
6:53 AM 35.1 °F - 35.1 °F 100% 30.18 in 9.0 mi Calm Calm - 0.03 in Rain Light Rain
7:19 AM 35.6 °F 31.7 °F 33.8 °F 93% 30.18 in 10.0 mi East 4.6 mph - 0.01 in   Overcast
7:53 AM 35.1 °F 32.2 °F 35.1 °F 100% 30.19 in 10.0 mi ESE 3.5 mph - 0.01 in   Overcast
8:49 AM 37.4 °F 34.9 °F 35.6 °F 93% 30.20 in 10.0 mi East 3.5 mph - N/A   Overcast
8:53 AM 37.0 °F - 36.0 °F 96% 30.20 in 10.0 mi Calm Calm - N/A   Overcast
9:50 AM 39.2 °F 37.0 °F 37.4 °F 93% 30.22 in 10.0 mi East 3.5 mph - 0.01 in   Mostly Cloudy
9:53 AM 39.0 °F 36.8 °F 37.0 °F 93% 30.22 in 10.0 mi East 3.5 mph - 0.01 in   Mostly Cloudy
10:23 AM 37.4 °F 30.3 °F 35.6 °F 93% 30.23 in 8.0 mi SW 10.4 mph - 0.00 in Rain Light Rain
10:41 AM 35.6 °F 31.7 °F 35.6 °F 100% 30.23 in 7.0 mi South 4.6 mph - 0.03 in Rain , Snow Light Snow
10:53 AM 36.0 °F - 36.0 °F 100% 30.24 in 7.0 mi Calm Calm - 0.03 in Rain , Snow Light Snow
10:58 AM 35.6 °F 32.8 °F 35.6 °F 100% 30.24 in 10.0 mi East 3.5 mph - N/A   Mostly Cloudy
11:18 AM 37.4 °F 32.8 °F 35.6 °F 93% 30.24 in 10.0 mi ESE 5.8 mph - N/A   Overcast
11:53 AM 39.0 °F 35.7 °F 36.0 °F 89% 30.25 in 10.0 mi ESE 4.6 mph - N/A   Mostly Cloudy
12:53 PM 42.1 °F 37.1 °F 37.0 °F 82% 30.25 in 10.0 mi SSW 8.1 mph - N/A   Mostly Cloudy
1:11 PM 42.8 °F 37.0 °F 35.6 °F 76% 30.26 in 10.0 mi SSW 10.4 mph - 0.00 in Rain Light Rain
1:26 PM 42.8 °F 37.5 °F 37.4 °F 81% 30.26 in 10.0 mi SSW 9.2 mph - 0.00 in Rain Light Rain
1:53 PM 41.0 °F 33.9 °F 35.1 °F 79% 30.27 in 10.0 mi SSW 12.7 mph - 0.00 in   Overcast
2:12 PM 41.0 °F 36.4 °F 35.6 °F 81% 30.27 in 10.0 mi SSW 6.9 mph - 0.01 in   Overcast
2:53 PM 39.9 °F 33.4 °F 34.0 °F 79% 30.27 in 5.0 mi NW 10.4 mph - 0.04 in Rain Light Rain
3:00 PM 39.2 °F 37.0 °F 35.6 °F 87% 30.27 in 4.0 mi North 3.5 mph - 0.00 in Rain Light Rain
3:07 PM 41.0 °F - 35.6 °F 81% 30.26 in 10.0 mi Calm Calm - 0.01 in Rain Light Rain
3:53 PM 42.1 °F 40.2 °F 35.1 °F 76% 30.27 in 10.0 mi SSE 3.5 mph - 0.01 in   Mostly Cloudy
4:53 PM 41.0 °F 35.8 °F 34.0 °F 76% 30.28 in 10.0 mi NNW 8.1 mph - N/A   Mostly Cloudy
5:53 PM 42.1 °F 37.7 °F 33.1 °F 70% 30.28 in 10.0 mi SW 6.9 mph - N/A   Mostly Cloudy
6:53 PM 41.0 °F 39.0 °F 34.0 °F 76% 30.28 in 10.0 mi WNW 3.5 mph - N/A   Mostly Cloudy
7:36 PM 39.2 °F - 33.8 °F 81% 30.27 in 10.0 mi Calm Calm - N/A   Mostly Cloudy
7:45 PM 39.2 °F 37.0 °F 33.8 °F 81% 30.27 in 10.0 mi East 3.5 mph - N/A   Mostly Cloudy
7:53 PM 39.0 °F - 34.0 °F 82% 30.28 in 10.0 mi Calm Calm - N/A   Mostly Cloudy
8:53 PM 37.0 °F 34.5 °F 34.0 °F 89% 30.29 in 10.0 mi ENE 3.5 mph - N/A   Scattered Clouds
9:53 PM 36.0 °F 32.1 °F 34.0 °F 93% 30.30 in 10.0 mi East 4.6 mph - N/A   Clear
10:53 PM 35.1 °F 29.3 °F 33.1 °F 92% 30.29 in 10.0 mi East 6.9 mph - N/A   Clear
11:53 PM 35.1 °F 31.0 °F 33.1 °F 92% 30.30 in 10.0 mi East 4.6 mph - N/A   Clear